User: anonymous   Login
Location: Mt. Chestnut Observatory
(40.9038°N, 79.9956°W)
Time: 01:08:42
(UTC-05:00)
Language:

Cosmos 2034 Rocket - Orbit

View from above orbital plane
View from above orbital plane
View from above satellite
View from above satellite

Ground track
Ground track

The orbit data is extracted from the following two-line orbital elements,

1 20150U 89059B   17323.67066676 -.00000030  00000-0 -46569-4 0  9998
2 20150  82.9382 338.7440 0028412 205.8549 292.8320 13.75632602421762
Epoch (UTC): 19 November 2017 16:05:45
Eccentricity: 0.0028412
inclination: 82.9382°
perigee height: 958 km
apogee height: 1000 km
right ascension of ascending node: 338.7440°
argument of perigee: 205.8549°
revolutions per day: 13.75632602
mean anomaly at epoch: 292.8320°
orbit number at epoch: 42176

The dashed part of the orbit path shows where the satellite is in the earth's shadow,  

DLR